When you browse on this site, cookies collect data to enhance your experience and personalize the content and advertising you see.
Visit our Privacy Policy to learn more. By continuing to use the site, you agree to this use of cookies and data.
  • In Schweiz
  • Länderverzeichnis
  • Für 7 Tage
  • Wassertemperatur
  • Wetterkarte
  • Widgets
  • user-avatar
    Anmelden

    Stündliche Wetter Majadahonda

    Heute, 17 September, Dienstag

    Zeit Temperatur Niederschläge Wind Luftdruck Luftfeuchtigkeit
    00:00 +20°C° 0 mm 0 m/S 702 mmHg 59%
    01:00 +20°C° 0 mm 0 m/S 701 mmHg 60%
    02:00 +19°C° 0 mm 0 m/S 701 mmHg 60%
    03:00 +21°C° 0 mm 1 m/S 701 mmHg 61%
    04:00 +21°C° 0 mm 1 m/S 701 mmHg 61%
    05:00 +21°C° 0 mm 1 m/S 701 mmHg 61%
    06:00 +20°C° 0 mm 1 m/S 701 mmHg 61%
    07:00 +22°C° 0 mm 1 m/S 701 mmHg 57%
    08:00 +23°C° 0 mm 1 m/S 701 mmHg 52%
    09:00 +24°C° 0 mm 1 m/S 702 mmHg 48%
    10:00 +25°C° 0 mm 1 m/S 701 mmHg 44%
    11:00 +26°C° 0 mm 1 m/S 701 mmHg 41%
    12:00 +27°C° 0 mm 1 m/S 701 mmHg 38%
    13:00 +28°C° 0 mm 1 m/S 701 mmHg 36%
    14:00 +28°C° 0 mm 1 m/S 700 mmHg 34%
    15:00 +29°C° 0 mm 1 m/S 700 mmHg 31%
    16:00 +28°C° 0.1 mm 2 m/S 700 mmHg 33%
    17:00 +28°C° 0.1 mm 2 m/S 700 mmHg 35%
    18:00 +27°C° 0.1 mm 2 m/S 700 mmHg 37%
    19:00 +25°C° 0.2 mm 2 m/S 700 mmHg 45%
    20:00 +24°C° 0.2 mm 1 m/S 700 mmHg 52%
    21:00 +22°C° 0.2 mm 1 m/S 700 mmHg 60%
    22:00 +22°C° 0.1 mm 1 m/S 700 mmHg 61%
    23:00 +20°C° 0.1 mm 2 m/S 700 mmHg 62%

    Morgen, 18 September, Mittwoch

    Zeit Temperatur Niederschläge Wind Luftdruck Luftfeuchtigkeit
    00:00 +20°C° 0.1 mm 2 m/S 699 mmHg 62%
    01:00 +21°C° 0 mm 1 m/S 699 mmHg 63%
    02:00 +21°C° 0 mm 1 m/S 699 mmHg 64%
    03:00 +18°C° 0 mm 0 m/S 699 mmHg 65%
    04:00 +20°C° 0 mm 1 m/S 699 mmHg 66%
    05:00 +20°C° 0 mm 1 m/S 699 mmHg 67%
    06:00 +19°C° 0 mm 1 m/S 699 mmHg 68%
    07:00 +21°C° 0 mm 1 m/S 700 mmHg 62%
    08:00 +22°C° 0 mm 1 m/S 700 mmHg 57%
    09:00 +21°C° 0 mm 0 m/S 700 mmHg 52%
    10:00 +25°C° 0 mm 1 m/S 700 mmHg 48%
    11:00 +26°C° 0 mm 1 m/S 700 mmHg 44%
    12:00 +27°C° 0 mm 1 m/S 700 mmHg 40%
    13:00 +28°C° 0 mm 1 m/S 700 mmHg 37%
    14:00 +28°C° 0 mm 2 m/S 700 mmHg 35%
    15:00 +29°C° 0 mm 2 m/S 700 mmHg 33%
    16:00 +28°C° 0 mm 2 m/S 700 mmHg 35%
    17:00 +28°C° 0 mm 2 m/S 699 mmHg 37%
    18:00 +27°C° 0 mm 2 m/S 699 mmHg 38%
    19:00 +26°C° 0 mm 1 m/S 700 mmHg 41%
    20:00 +26°C° 0 mm 1 m/S 700 mmHg 43%
    21:00 +25°C° 0 mm 1 m/S 701 mmHg 46%
    22:00 +24°C° 0 mm 1 m/S 700 mmHg 47%
    23:00 +24°C° 0 mm 1 m/S 700 mmHg 49%

    übermorgen, 19 September, Donnerstag

    Zeit Temperatur Niederschläge Wind Luftdruck Luftfeuchtigkeit
    00:00 +24°C° 0 mm 1 m/S 700 mmHg 51%
    01:00 +23°C° 0 mm 1 m/S 700 mmHg 52%
    02:00 +23°C° 0 mm 1 m/S 700 mmHg 53%
    03:00 +23°C° 0 mm 1 m/S 700 mmHg 54%
    04:00 +22°C° 0 mm 1 m/S 700 mmHg 54%
    05:00 +22°C° 0 mm 1 m/S 700 mmHg 55%
    06:00 +22°C° 0 mm 1 m/S 700 mmHg 55%
    07:00 +23°C° 0 mm 1 m/S 700 mmHg 51%
    08:00 +24°C° 0 mm 1 m/S 700 mmHg 48%
    09:00 +25°C° 0 mm 1 m/S 701 mmHg 44%
    10:00 +27°C° 0 mm 1 m/S 701 mmHg 40%
    11:00 +28°C° 0 mm 1 m/S 701 mmHg 37%
    12:00 +29°C° 0 mm 1 m/S 701 mmHg 34%
    13:00 +29°C° 0 mm 1 m/S 700 mmHg 32%
    14:00 +29°C° 0 mm 2 m/S 700 mmHg 30%
    15:00 +30°C° 0 mm 2 m/S 700 mmHg 28%
    16:00 +29°C° 0 mm 2 m/S 699 mmHg 31%
    17:00 +28°C° 0 mm 1 m/S 699 mmHg 33%
    18:00 +28°C° 0 mm 1 m/S 699 mmHg 35%
    19:00 +27°C° 0 mm 1 m/S 699 mmHg 35%
    20:00 +27°C° 0 mm 1 m/S 700 mmHg 36%
    21:00 +26°C° 0 mm 1 m/S 700 mmHg 37%
    22:00 +26°C° 0 mm 2 m/S 700 mmHg 40%
    23:00 +25°C° 0 mm 3 m/S 700 mmHg 44%

    20 September, Freitag

    Zeit Temperatur Niederschläge Wind Luftdruck Luftfeuchtigkeit
    00:00 +24°C° 0 mm 3 m/S 700 mmHg 48%
    01:00 +24°C° 0.4 mm 3 m/S 699 mmHg 53%
    02:00 +22°C° 0.4 mm 3 m/S 699 mmHg 58%
    03:00 +21°C° 0.4 mm 3 m/S 699 mmHg 64%
    04:00 +21°C° 0.4 mm 3 m/S 699 mmHg 67%
    05:00 +20°C° 0.4 mm 3 m/S 699 mmHg 70%
    06:00 +20°C° 0.4 mm 3 m/S 699 mmHg 73%
    07:00 +21°C° 0.1 mm 3 m/S 699 mmHg 70%
    08:00 +21°C° 0.1 mm 3 m/S 699 mmHg 67%
    09:00 +22°C° 0.1 mm 3 m/S 700 mmHg 63%
    10:00 +24°C° 0 mm 3 m/S 700 mmHg 55%
    11:00 +26°C° 0 mm 3 m/S 700 mmHg 47%
    12:00 +27°C° 0 mm 3 m/S 700 mmHg 39%
    13:00 +28°C° 0 mm 4 m/S 699 mmHg 36%
    14:00 +28°C° 0 mm 4 m/S 699 mmHg 34%
    15:00 +28°C° 0 mm 5 m/S 698 mmHg 31%
    16:00 +28°C° 0 mm 5 m/S 699 mmHg 35%
    17:00 +27°C° 0 mm 5 m/S 699 mmHg 38%
    18:00 +26°C° 0 mm 4 m/S 699 mmHg 42%
    19:00 +25°C° 0.7 mm 4 m/S 699 mmHg 46%
    20:00 +24°C° 0.7 mm 3 m/S 699 mmHg 50%
    21:00 +22°C° 0.7 mm 3 m/S 699 mmHg 54%
    22:00 +21°C° 0.4 mm 3 m/S 699 mmHg 55%
    23:00 +21°C° 0.4 mm 2 m/S 699 mmHg 57%

    21 September, Samstag

    Zeit Temperatur Niederschläge Wind Luftdruck Luftfeuchtigkeit
    00:00 +21°C° 0.4 mm 2 m/S 699 mmHg 58%
    01:00 +20°C° 0.6 mm 2 m/S 698 mmHg 62%
    02:00 +20°C° 0.6 mm 1 m/S 698 mmHg 65%
    03:00 +20°C° 0.6 mm 1 m/S 698 mmHg 69%
    04:00 +19°C° 0.2 mm 1 m/S 698 mmHg 70%
    05:00 +19°C° 0.2 mm 1 m/S 698 mmHg 70%
    06:00 +19°C° 0.2 mm 1 m/S 697 mmHg 71%
    07:00 +20°C° 0 mm 1 m/S 698 mmHg 67%
    08:00 +19°C° 0 mm 2 m/S 698 mmHg 63%
    09:00 +20°C° 0 mm 2 m/S 699 mmHg 60%
    10:00 +21°C° 0 mm 3 m/S 699 mmHg 55%
    11:00 +22°C° 0 mm 3 m/S 699 mmHg 51%
    12:00 +23°C° 0 mm 4 m/S 699 mmHg 47%
    13:00 +25°C° 0 mm 4 m/S 698 mmHg 45%
    14:00 +25°C° 0 mm 4 m/S 698 mmHg 43%
    15:00 +25°C° 0 mm 4 m/S 698 mmHg 41%
    16:00 +25°C° 0 mm 4 m/S 698 mmHg 43%
    17:00 +24°C° 0 mm 3 m/S 698 mmHg 44%
    18:00 +24°C° 0 mm 3 m/S 698 mmHg 46%
    19:00 +22°C° 0 mm 3 m/S 699 mmHg 48%
    20:00 +23°C° 0 mm 2 m/S 699 mmHg 49%
    21:00 +22°C° 0 mm 1 m/S 699 mmHg 51%
    22:00 +22°C° 0 mm 1 m/S 699 mmHg 53%
    23:00 +21°C° 0 mm 1 m/S 699 mmHg 54%

    22 September, Sonntag

    Zeit Temperatur Niederschläge Wind Luftdruck Luftfeuchtigkeit
    00:00 +21°C° 0 mm 1 m/S 699 mmHg 56%
    01:00 +20°C° 0 mm 1 m/S 699 mmHg 57%
    02:00 +20°C° 0 mm 1 m/S 699 mmHg 57%
    03:00 +20°C° 0 mm 1 m/S 699 mmHg 58%
    04:00 +20°C° 0 mm 1 m/S 699 mmHg 59%
    05:00 +19°C° 0 mm 1 m/S 699 mmHg 60%
    06:00 +19°C° 0 mm 1 m/S 699 mmHg 62%
    07:00 +20°C° 0 mm 1 m/S 700 mmHg 57%
    08:00 +21°C° 0 mm 1 m/S 700 mmHg 53%
    09:00 +21°C° 0 mm 2 m/S 700 mmHg 49%
    10:00 +23°C° 0 mm 2 m/S 700 mmHg 46%
    11:00 +24°C° 0 mm 3 m/S 700 mmHg 43%
    12:00 +25°C° 0 mm 3 m/S 701 mmHg 40%
    13:00 +26°C° 0 mm 3 m/S 700 mmHg 39%
    14:00 +26°C° 0 mm 3 m/S 700 mmHg 38%
    15:00 +26°C° 0 mm 3 m/S 700 mmHg 37%
    16:00 +26°C° 0 mm 3 m/S 700 mmHg 39%
    17:00 +25°C° 0 mm 2 m/S 700 mmHg 42%
    18:00 +25°C° 0 mm 2 m/S 700 mmHg 45%
    19:00 +24°C° 0 mm 2 m/S 701 mmHg 47%
    20:00 +23°C° 0 mm 2 m/S 701 mmHg 50%
    21:00 +23°C° 0 mm 1 m/S 702 mmHg 52%
    22:00 +22°C° 0 mm 1 m/S 702 mmHg 54%
    23:00 +22°C° 0 mm 1 m/S 702 mmHg 56%
    Mehr zeigen